Time,TemperatureF,DewpointF,PressureIn,WindDirection,WindDirectionDegrees,WindSpeedMPH,WindSpeedGustMPH,Humidity,HourlyPrecipIn,Conditions,Clouds,dailyrainin,SoftwareType,DateUTC
2013-02-14 00:00:00,76.0,75.0,30.00,SE,140,7.0,7.0,95,-99.99,,,-99.99,,2013-02-14 05:00:00,
2013-02-14 00:21:00,76.0,75.0,30.00,SE,140,7.0,7.0,95,-99.99,,,-99.99,,2013-02-14 05:21:00,
2013-02-14 00:31:00,76.0,75.0,30.00,SE,140,7.0,7.0,95,-99.99,,,-99.99,,2013-02-14 05:31:00,
2013-02-14 00:41:00,76.0,75.0,30.00,SE,140,7.0,7.0,95,-99.99,,,-99.99,,2013-02-14 05:41:00,
2013-02-14 00:51:00,76.0,75.0,30.00,SE,140,7.0,7.0,95,-99.99,,,-99.99,,2013-02-14 05:51:00,
2013-02-14 01:00:00,76.0,73.0,29.99,SE,140,6.0,7.0,89,-99.99,,,-99.99,,2013-02-14 06:00:00,
2013-02-14 01:21:00,76.0,73.0,29.99,SE,140,6.0,7.0,89,-99.99,,,-99.99,,2013-02-14 06:21:00,
2013-02-14 01:31:00,76.0,73.0,29.99,SE,140,6.0,7.0,89,-99.99,,,-99.99,,2013-02-14 06:31:00,
2013-02-14 01:41:00,76.0,73.0,29.99,SE,140,6.0,7.0,89,-99.99,,,-99.99,,2013-02-14 06:41:00,
2013-02-14 01:51:00,76.0,73.0,29.99,SE,140,6.0,7.0,89,-99.99,,,-99.99,,2013-02-14 06:51:00,
2013-02-14 02:00:00,76.0,75.0,29.97,SSE,160,13.0,13.0,95,-99.99,,,-99.99,,2013-02-14 07:00:00,
2013-02-14 02:21:00,76.0,75.0,29.97,SSE,160,13.0,13.0,95,-99.99,,,-99.99,,2013-02-14 07:21:00,
2013-02-14 02:31:00,76.0,75.0,29.97,SSE,160,13.0,13.0,95,-99.99,,,-99.99,,2013-02-14 07:31:00,
2013-02-14 02:41:00,76.0,75.0,29.97,SSE,160,13.0,13.0,95,-99.99,,,-99.99,,2013-02-14 07:41:00,
2013-02-14 02:51:00,76.0,75.0,29.97,SSE,160,13.0,13.0,95,-99.99,,,-99.99,,2013-02-14 07:51:00,
2013-02-14 03:00:00,76.0,76.0,29.95,South,170,10.0,10.0,98,-99.99,,,-99.99,,2013-02-14 08:00:00,
2013-02-14 03:21:00,76.0,76.0,29.95,South,170,10.0,10.0,98,-99.99,,,-99.99,,2013-02-14 08:21:00,
2013-02-14 03:31:00,76.0,76.0,29.95,South,170,10.0,10.0,98,-99.99,,,-99.99,,2013-02-14 08:31:00,
2013-02-14 03:43:00,76.0,76.0,29.95,South,170,10.0,10.0,98,-99.99,,,-99.99,,2013-02-14 08:43:00,
2013-02-14 03:52:00,76.0,76.0,29.95,South,170,10.0,10.0,98,-99.99,,,-99.99,,2013-02-14 08:52:00,
2013-02-14 04:00:00,76.0,76.0,29.94,South,170,11.0,13.0,98,-99.99,,,-99.99,,2013-02-14 09:00:00,
2013-02-14 04:21:00,76.0,76.0,29.94,South,170,11.0,13.0,98,-99.99,,,-99.99,,2013-02-14 09:21:00,
2013-02-14 04:31:00,76.0,76.0,29.94,South,170,11.0,13.0,98,-99.99,,,-99.99,,2013-02-14 09:31:00,
2013-02-14 04:41:00,76.0,76.0,29.94,South,170,11.0,13.0,98,-99.99,,,-99.99,,2013-02-14 09:41:00,
2013-02-14 04:51:00,76.0,76.0,29.94,South,170,11.0,13.0,98,-99.99,,,-99.99,,2013-02-14 09:51:00,
2013-02-14 05:00:00,76.0,76.0,29.94,South,190,8.0,8.0,98,-99.99,,,-99.99,,2013-02-14 10:00:00,
2013-02-14 05:21:00,76.0,76.0,29.94,South,190,8.0,8.0,98,-99.99,,,-99.99,,2013-02-14 10:21:00,
2013-02-14 05:31:00,76.0,76.0,29.94,South,190,8.0,8.0,98,-99.99,,,-99.99,,2013-02-14 10:31:00,
2013-02-14 05:41:00,76.0,76.0,29.94,South,190,8.0,8.0,98,-99.99,,,-99.99,,2013-02-14 10:41:00,
2013-02-14 05:52:00,76.0,76.0,29.94,South,190,8.0,8.0,98,-99.99,,,-99.99,,2013-02-14 10:52:00,
2013-02-14 06:00:00,76.0,74.0,29.95,South,190,8.0,9.0,94,-99.99,,,-99.99,,2013-02-14 11:00:00,
2013-02-14 06:21:00,76.0,74.0,29.95,South,190,8.0,9.0,94,-99.99,,,-99.99,,2013-02-14 11:21:00,
2013-02-14 06:31:00,76.0,74.0,29.95,South,190,8.0,9.0,94,-99.99,,,-99.99,,2013-02-14 11:31:00,
2013-02-14 06:41:00,76.0,74.0,29.95,South,190,8.0,9.0,94,-99.99,,,-99.99,,2013-02-14 11:41:00,
2013-02-14 06:51:00,76.0,74.0,29.95,South,190,8.0,9.0,94,-99.99,,,-99.99,,2013-02-14 11:51:00,
2013-02-14 07:00:00,76.0,75.0,29.97,SW,220,11.0,13.0,95,-99.99,,,-99.99,,2013-02-14 12:00:00,
2013-02-14 07:21:00,76.0,75.0,29.97,SW,220,11.0,13.0,95,-99.99,,,-99.99,,2013-02-14 12:21:00,
2013-02-14 07:31:00,76.0,75.0,29.97,SW,220,11.0,13.0,95,-99.99,,,-99.99,,2013-02-14 12:31:00,
2013-02-14 07:41:00,76.0,75.0,29.97,SW,220,11.0,13.0,95,-99.99,,,-99.99,,2013-02-14 12:41:00,
2013-02-14 07:53:00,76.0,75.0,29.97,SW,220,11.0,13.0,95,-99.99,,,-99.99,,2013-02-14 12:53:00,
2013-02-14 08:00:00,77.0,76.0,29.99,SSW,210,11.0,13.0,98,-99.99,,,-99.99,,2013-02-14 13:00:00,
2013-02-14 08:21:00,77.0,76.0,29.99,SSW,210,11.0,13.0,98,-99.99,,,-99.99,,2013-02-14 13:21:00,
2013-02-14 08:31:00,77.0,76.0,29.99,SSW,210,11.0,13.0,98,-99.99,,,-99.99,,2013-02-14 13:31:00,
2013-02-14 08:41:00,77.0,76.0,29.99,SSW,210,11.0,13.0,98,-99.99,,,-99.99,,2013-02-14 13:41:00,
2013-02-14 08:51:00,77.0,76.0,29.99,SSW,210,11.0,13.0,98,-99.99,,,-99.99,,2013-02-14 13:51:00,
2013-02-14 09:00:00,77.0,76.0,29.99,SSW,200,15.0,16.0,98,-99.99,,,-99.99,,2013-02-14 14:00:00,
2013-02-14 09:21:00,77.0,76.0,29.99,SSW,200,15.0,16.0,98,-99.99,,,-99.99,,2013-02-14 14:21:00,
2013-02-14 09:31:00,77.0,76.0,29.99,SSW,200,15.0,16.0,98,-99.99,,,-99.99,,2013-02-14 14:31:00,
2013-02-14 09:41:00,77.0,76.0,29.99,SSW,200,15.0,16.0,98,-99.99,,,-99.99,,2013-02-14 14:41:00,
2013-02-14 09:52:00,77.0,76.0,29.99,SSW,200,15.0,16.0,98,-99.99,,,-99.99,,2013-02-14 14:52:00,
2013-02-14 10:00:00,77.0,77.0,30.01,SSW,200,16.0,17.0,98,-99.99,,,-99.99,,2013-02-14 15:00:00,
2013-02-14 10:21:00,77.0,77.0,30.01,SSW,200,16.0,17.0,98,-99.99,,,-99.99,,2013-02-14 15:21:00,
2013-02-14 10:31:00,77.0,77.0,30.01,SSW,200,16.0,17.0,98,-99.99,,,-99.99,,2013-02-14 15:31:00,
2013-02-14 10:41:00,77.0,77.0,30.01,SSW,200,16.0,17.0,98,-99.99,,,-99.99,,2013-02-14 15:41:00,
2013-02-14 10:51:00,77.0,77.0,30.01,SSW,200,16.0,17.0,98,-99.99,,,-99.99,,2013-02-14 15:51:00,
2013-02-14 11:00:00,77.0,77.0,30.01,SSW,200,18.0,18.0,98,-99.99,,,-99.99,,2013-02-14 16:00:00,
2013-02-14 11:21:00,77.0,77.0,30.01,SSW,200,18.0,18.0,98,-99.99,,,-99.99,,2013-02-14 16:21:00,
2013-02-14 11:31:00,77.0,77.0,30.01,SSW,200,18.0,18.0,98,-99.99,,,-99.99,,2013-02-14 16:31:00,
2013-02-14 11:41:00,77.0,77.0,30.01,SSW,200,18.0,18.0,98,-99.99,,,-99.99,,2013-02-14 16:41:00,
2013-02-14 11:51:00,77.0,77.0,30.01,SSW,200,18.0,18.0,98,-99.99,,,-99.99,,2013-02-14 16:51:00,
2013-02-14 12:00:00,78.0,77.0,29.99,SSW,200,18.0,20.0,98,-99.99,,,-99.99,,2013-02-14 17:00:00,
2013-02-14 12:21:00,78.0,77.0,29.99,SSW,200,18.0,20.0,98,-99.99,,,-99.99,,2013-02-14 17:21:00,
2013-02-14 12:31:00,78.0,77.0,29.99,SSW,200,18.0,20.0,98,-99.99,,,-99.99,,2013-02-14 17:31:00,
2013-02-14 12:41:00,78.0,77.0,29.99,SSW,200,18.0,20.0,98,-99.99,,,-99.99,,2013-02-14 17:41:00,
2013-02-14 12:52:00,78.0,77.0,29.99,SSW,200,18.0,20.0,98,-99.99,,,-99.99,,2013-02-14 17:52:00,
2013-02-14 13:00:00,78.0,77.0,29.96,SSW,200,21.0,22.0,97,-99.99,,,-99.99,,2013-02-14 18:00:00,
2013-02-14 13:22:00,78.0,77.0,29.96,SSW,200,21.0,22.0,97,-99.99,,,-99.99,,2013-02-14 18:22:00,
2013-02-14 13:31:00,78.0,77.0,29.96,SSW,200,21.0,22.0,97,-99.99,,,-99.99,,2013-02-14 18:31:00,
2013-02-14 13:41:00,78.0,77.0,29.96,SSW,200,21.0,22.0,97,-99.99,,,-99.99,,2013-02-14 18:41:00,
2013-02-14 13:51:00,78.0,77.0,29.96,SSW,200,21.0,22.0,97,-99.99,,,-99.99,,2013-02-14 18:51:00,
2013-02-14 14:00:00,78.0,78.0,29.94,South,190,20.0,21.0,98,-99.99,,,-99.99,,2013-02-14 19:00:00,
2013-02-14 14:21:00,78.0,78.0,29.94,South,190,20.0,21.0,98,-99.99,,,-99.99,,2013-02-14 19:21:00,
2013-02-14 14:31:00,78.0,78.0,29.94,South,190,20.0,21.0,98,-99.99,,,-99.99,,2013-02-14 19:31:00,
2013-02-14 14:41:00,78.0,78.0,29.94,South,190,20.0,21.0,98,-99.99,,,-99.99,,2013-02-14 19:41:00,
2013-02-14 14:51:00,78.0,78.0,29.94,South,190,20.0,21.0,98,-99.99,,,-99.99,,2013-02-14 19:51:00,
2013-02-14 15:00:00,78.0,77.0,29.93,South,190,15.0,16.0,98,-99.99,,,-99.99,,2013-02-14 20:00:00,
2013-02-14 15:21:00,78.0,77.0,29.93,South,190,15.0,16.0,98,-99.99,,,-99.99,,2013-02-14 20:21:00,
2013-02-14 15:31:00,78.0,77.0,29.93,South,190,15.0,16.0,98,-99.99,,,-99.99,,2013-02-14 20:31:00,
2013-02-14 15:41:00,78.0,77.0,29.93,South,190,15.0,16.0,98,-99.99,,,-99.99,,2013-02-14 20:41:00,
2013-02-14 15:51:00,78.0,77.0,29.93,South,190,15.0,16.0,98,-99.99,,,-99.99,,2013-02-14 20:51:00,
2013-02-14 16:00:00,78.0,77.0,29.93,South,190,15.0,16.0,97,-99.99,,,-99.99,,2013-02-14 21:00:00,
2013-02-14 16:21:00,78.0,77.0,29.93,South,190,15.0,16.0,97,-99.99,,,-99.99,,2013-02-14 21:21:00,
2013-02-14 16:31:00,78.0,77.0,29.93,South,190,15.0,16.0,97,-99.99,,,-99.99,,2013-02-14 21:31:00,
2013-02-14 16:41:00,78.0,77.0,29.93,South,190,15.0,16.0,97,-99.99,,,-99.99,,2013-02-14 21:41:00,
2013-02-14 16:51:00,78.0,77.0,29.93,South,190,15.0,16.0,97,-99.99,,,-99.99,,2013-02-14 21:51:00,
2013-02-14 17:00:00,79.0,78.0,29.93,South,190,11.0,13.0,98,-99.99,,,-99.99,,2013-02-14 22:00:00,
2013-02-14 17:21:00,79.0,78.0,29.93,South,190,11.0,13.0,98,-99.99,,,-99.99,,2013-02-14 22:21:00,
2013-02-14 17:31:00,79.0,78.0,29.93,South,190,11.0,13.0,98,-99.99,,,-99.99,,2013-02-14 22:31:00,
2013-02-14 17:41:00,79.0,78.0,29.93,South,190,11.0,13.0,98,-99.99,,,-99.99,,2013-02-14 22:41:00,
2013-02-14 17:51:00,79.0,78.0,29.93,South,190,11.0,13.0,98,-99.99,,,-99.99,,2013-02-14 22:51:00,
2013-02-14 18:00:00,78.0,77.0,29.93,South,190,11.0,11.0,98,-99.99,,,-99.99,,2013-02-14 23:00:00,
2013-02-14 18:21:00,78.0,77.0,29.93,South,190,11.0,11.0,98,-99.99,,,-99.99,,2013-02-14 23:21:00,
2013-02-14 18:31:00,78.0,77.0,29.93,South,190,11.0,11.0,98,-99.99,,,-99.99,,2013-02-14 23:31:00,
2013-02-14 18:41:00,78.0,77.0,29.93,South,190,11.0,11.0,98,-99.99,,,-99.99,,2013-02-14 23:41:00,
2013-02-14 18:51:00,78.0,77.0,29.93,South,190,11.0,11.0,98,-99.99,,,-99.99,,2013-02-14 23:51:00,
2013-02-14 19:00:00,77.0,77.0,29.94,South,190,9.0,10.0,98,-99.99,,,-99.99,,2013-02-15 00:00:00,
2013-02-14 19:21:00,77.0,77.0,29.94,South,190,9.0,10.0,98,-99.99,,,-99.99,,2013-02-15 00:21:00,
2013-02-14 19:31:00,77.0,77.0,29.94,South,190,9.0,10.0,98,-99.99,,,-99.99,,2013-02-15 00:31:00,
2013-02-14 19:41:00,77.0,77.0,29.94,South,190,9.0,10.0,98,-99.99,,,-99.99,,2013-02-15 00:41:00,
2013-02-14 19:51:00,77.0,77.0,29.94,South,190,9.0,10.0,98,-99.99,,,-99.99,,2013-02-15 00:51:00,
2013-02-14 20:00:00,77.0,75.0,29.94,SSW,200,13.0,14.0,94,-99.99,,,-99.99,,2013-02-15 01:00:00,
2013-02-14 20:21:00,77.0,75.0,29.94,SSW,200,13.0,14.0,94,-99.99,,,-99.99,,2013-02-15 01:21:00,
2013-02-14 20:31:00,77.0,75.0,29.94,SSW,200,13.0,14.0,94,-99.99,,,-99.99,,2013-02-15 01:31:00,
2013-02-14 20:41:00,77.0,75.0,29.94,SSW,200,13.0,14.0,94,-99.99,,,-99.99,,2013-02-15 01:41:00,
2013-02-14 20:51:00,77.0,75.0,29.94,SSW,200,13.0,14.0,94,-99.99,,,-99.99,,2013-02-15 01:51:00,
2013-02-14 21:00:00,77.0,77.0,29.96,SSW,200,16.0,16.0,98,-99.99,,,-99.99,,2013-02-15 02:00:00,
2013-02-14 21:21:00,77.0,77.0,29.96,SSW,200,16.0,16.0,98,-99.99,,,-99.99,,2013-02-15 02:21:00,
2013-02-14 21:31:00,77.0,77.0,29.96,SSW,200,16.0,16.0,98,-99.99,,,-99.99,,2013-02-15 02:31:00,
2013-02-14 21:41:00,77.0,77.0,29.96,SSW,200,16.0,16.0,98,-99.99,,,-99.99,,2013-02-15 02:41:00,
2013-02-14 21:51:00,77.0,77.0,29.96,SSW,200,16.0,16.0,98,-99.99,,,-99.99,,2013-02-15 02:51:00,
2013-02-14 22:00:00,70.0,70.0,30.00,North,10,24.0,26.0,98,-99.99,,,-99.99,,2013-02-15 03:00:00,
2013-02-14 22:21:00,70.0,70.0,30.00,North,10,24.0,26.0,98,-99.99,,,-99.99,,2013-02-15 03:21:00,
2013-02-14 22:31:00,70.0,70.0,30.00,North,10,24.0,26.0,98,-99.99,,,-99.99,,2013-02-15 03:31:00,
2013-02-14 22:41:00,70.0,70.0,30.00,North,10,24.0,26.0,98,-99.99,,,-99.99,,2013-02-15 03:41:00,
2013-02-14 22:51:00,70.0,70.0,30.00,North,10,24.0,26.0,98,-99.99,,,-99.99,,2013-02-15 03:51:00,
2013-02-14 23:00:00,68.0,68.0,29.98,NE,40,23.0,25.0,98,-99.99,,,-99.99,,2013-02-15 04:00:00,
2013-02-14 23:21:00,68.0,68.0,29.98,NE,40,23.0,25.0,98,-99.99,,,-99.99,,2013-02-15 04:21:00,
2013-02-14 23:31:00,68.0,68.0,29.98,NE,40,23.0,25.0,98,-99.99,,,-99.99,,2013-02-15 04:31:00,
2013-02-14 23:41:00,68.0,68.0,29.98,NE,40,23.0,25.0,98,-99.99,,,-99.99,,2013-02-15 04:41:00,
2013-02-14 23:51:00,68.0,68.0,29.98,NE,40,23.0,25.0,98,-99.99,,,-99.99,,2013-02-15 04:51:00,